Regional Weather Roundup
Issued by NWS

Home | Current Version | Previous Version | Graphics & Text | Print | Product List | Glossary On
Versions: 1 2 3 4 5 6 7 8 9 10 11 12 13 14 15 16 17 18 19 20 21 22 23 24 25 26 27 28 29 30 31 32 33 34 35 36 37 38 39 40 41 42 43 44 45 46 47 48 49 50
750
ASUS44 KLIX 192001
RWRLA
LOUISIANA WEATHER ROUNDUP
NATIONAL WEATHER SERVICE NEW ORLEANS LA
300 PM CDT SUN OCT 19 2014

NOTE: "FAIR" INDICATES FEW OR NO CLOUDS BELOW 12,000 FEET WITH NO
      SIGNIFICANT WEATHER AND/OR OBSTRUCTIONS TO VISIBILITY.
      SKY/WX - SKY CONDITION AND SIGNIFICANT WEATHER.
      TMP - AIR TEMPERATURE.    DP   - DEWPOINT TEMPERATURE.
      RH  - RELATIVE HUMIDITY.  PRES - PRESSURE.
      HX  - HEAT INDEX.         WCI  - WIND CHILL INDEX.

*  THESE STATIONS ARE NOT NWS OR FAA STATIONS AND ARE NOT UNDER
   NWS QUALITY CONTROL.

LAZ040-048-061>063-065-066-069-192100-
SOUTHEAST LOUISIANA

CITY           SKY/WX    TMP DP  RH WIND       PRES   REMARKS
N.O. AUDUBON     N/A     76  64  65 MISG        N/A
N.O. INTL ARPT MOSUNNY   76  56  49 NE12      30.06F
N.O. LAKEFRONT SUNNY     75  55  49 E7        30.07F
N.O. DOWNTOWN* FAIR      73  55  53 E3        30.07F
SLIDELL        SUNNY     76  54  46 CALM      30.06F
BATON ROUGE    SUNNY     77  55  46 VRB6      30.06F
BOOTHVILLE     PTSUNNY   76  65  68 NE9       30.05F
BELLE CHASSE   MOSUNNY   76  58  53 VRB7      30.05F
BOGALUSA*        N/A     77  47  35 NE7       30.08F
NEW ROADS*     FAIR      74  55  49 CALM      30.07F
GONZALES*      FAIR      75  56  51 E3        30.05F
HAMMOND*       NOT AVBL
HOUMA*         MOSUNNY   79  63  57 E6        30.06S
PORT FOURCHON* MOCLDY    75  64  69 E12       30.07F

$$

LAZ041-044-053-054-192100-
SOUTHWEST LOUISIANA

CITY           SKY/WX    TMP DP  RH WIND       PRES   REMARKS
LAKE CHARLES   SUNNY     78  57  48 NE10      30.05F
LAFAYETTE      SUNNY     78  57  48 N6        30.05F
PATTERSON      NOT AVBL
SALT POINT       N/A     80  62  54 VRB3      30.03F
NEW IBERIA     SUNNY     79  59  50 NE9       30.05F
CHENAULT AIRPK NOT AVBL

$$

LAZ027-028-192100-
CENTRAL LOUISIANA

CITY           SKY/WX    TMP DP  RH WIND       PRES   REMARKS
FORT POLK      SUNNY     75  55  50 N8        30.07F
ALEXANDRIA INT SUNNY     75  50  41 VRB5      30.07F
ALEXANDRIA     SUNNY     74  52  46 VRB5      30.09F

$$

LAZ001-002-192100-
NORTHWEST LOUISIANA

CITY           SKY/WX    TMP DP  RH WIND       PRES   REMARKS
SHREVEPORT     SUNNY     72  48  42 NE3       30.10F
BARKSDALE AFB  SUNNY     73  48  41 VRB6      30.11F
DTN SHREVEPORT SUNNY     72  47  40 VRB5      30.11F

$$

LAZ014-016-192100-
NORTHEAST LOUISIANA

CITY           SKY/WX    TMP DP  RH WIND       PRES   REMARKS
MONROE         SUNNY     72  47  40 NE7       30.13F
TALLULAH       SUNNY     72  47  40 N6        30.11F

$$




USA.gov is the U.S. government's official web portal to all federal, state and local government web resources and services.